Location: Brasstown Bald
(34.8693°N, 83.8103°W)
Time: 11:50:43
(UTC-04:00)

Amateur Radio Satellites - All Passes

Search period start: 30 October 2014 11:20
Search period end: 31 October 2014 11:20
Location: Brasstown Bald, 34.8693°N, 83.8103°W

Satellite Date Start Highest point End Downlink Frequencies (MHz)
Time Altitude Azimuth
ISS 30 Oct 11:27:17 11:30:29 46° 321° (NW) 11:33:43 145.800 FM
HO-68 30 Oct 11:42:33 11:48:58 37° 294° (WNW) 11:55:23 435.675 MHz FM
Sapphire 30 Oct 11:43:38 11:47:19 18° 51° (NE) 11:50:58 437.095 MHz 1200 baud AX-25 AFSK
SO-50 30 Oct 11:44:20 11:48:36 48° 115° (ESE) 11:53:00 436.795 FM
Oscar 11 30 Oct 11:47:52 11:51:57 43° 286° (WNW) 11:56:01 145.825 FM, Beacon 2401.500 USB
FUNcube-1 30 Oct 12:01:15 12:05:26 77° 283° (WNW) 12:09:33 145.950 - 145.970 MHz USB
PCSat 30 Oct 12:04:45 12:09:27 29° 55° (NE) 12:14:06 145.825 MHz
KITSAT 1 30 Oct 12:18:39 12:26:41 69° 300° (WNW) 12:34:45 435.175 FM
UOSAT-12 30 Oct 12:37:01 12:39:24 14° 107° (ESE) 12:41:47 437.025 FM, 437.400 FM
ZACube-1 30 Oct 12:55:27 12:58:16 18° 292° (WNW) 13:01:03 437.345 MHz
Oscar 19 30 Oct 13:14:04 13:17:18 17° 65° (ENE) 13:20:32 437.125 CW, 437.150 USB
Sapphire 30 Oct 13:25:47 13:31:07 60° 248° (WSW) 13:36:26 437.095 MHz 1200 baud AX-25 AFSK
SO-50 30 Oct 13:26:24 13:29:25 17° 312° (NW) 13:32:29 436.795 FM
AO-27 30 Oct 13:47:52 13:50:42 15° 64° (ENE) 13:53:32 436.795 MHz FM
PCSat 30 Oct 13:47:59 13:52:49 34° 251° (WSW) 13:57:38 145.825 MHz
Oscar 16 30 Oct 13:58:53 14:03:50 49° 73° (ENE) 14:08:47 437.025 USB, Beacon 2401.1428
JAS-1B 30 Oct 14:12:46 14:18:30 59° 73° (ENE) 14:24:04 435.800 - 435.900 CW/SSB
UOSAT-12 30 Oct 14:14:32 14:19:02 52° 302° (WNW) 14:23:38 437.025 FM, 437.400 FM
KITSAT 1 30 Oct 14:19:11 14:23:39 15° 321° (NW) 14:28:08 435.175 FM
Uribyol 2 30 Oct 14:29:51 14:34:42 40° 71° (ENE) 14:39:34 436.500 FM
ITAMSAT 1 30 Oct 14:37:24 14:42:20 45° 72° (ENE) 14:47:18 435.822 SSB
AO-Echo 30 Oct 14:42:59 14:47:52 67° 75° (ENE) 14:52:57 ?
Oscar 19 30 Oct 14:51:14 14:56:12 50° 260° (W) 15:01:11 437.125 CW, 437.150 USB
Saudisat 1A 30 Oct 15:01:35 15:04:42 19° 50° (NE) 15:07:48 436.775 MHz
AO-7 30 Oct 15:07:03 15:11:27 16° 53° (NE) 15:15:51 29.400 - 29.500 MHz
AO-27 30 Oct 15:24:31 15:29:38 60° 259° (W) 15:34:49 436.795 MHz FM
Gurwin Techsat 1B 30 Oct 15:33:37 15:38:55 83° 76° (ENE) 15:44:15 435.225 FM
Oscar 16 30 Oct 15:40:15 15:43:24 16° 267° (W) 15:46:33 437.025 USB, Beacon 2401.1428
TMSAT-1 30 Oct 15:40:45 15:46:00 71° 75° (ENE) 15:51:18 436.925 FM
JAS-1B 30 Oct 16:06:50 16:09:36 14° 267° (W) 16:12:19 435.800 - 435.900 CW/SSB
Uribyol 2 30 Oct 16:10:27 16:14:16 20° 265° (W) 16:18:06 436.500 FM
ITAMSAT 1 30 Oct 16:18:28 16:21:59 18° 266° (W) 16:25:33 435.822 SSB
AO-Echo 30 Oct 16:25:45 16:27:06 11° 270° (W) 16:28:28 ?
Uosat F 30 Oct 16:34:08 16:38:29 31° 69° (ENE) 16:42:53 435.120 FM
Saudisat 1A 30 Oct 16:40:16 16:44:26 41° 246° (WSW) 16:48:34 436.775 MHz
AO-7 30 Oct 16:54:41 17:02:56 81° 71° (ENE) 17:11:15 29.400 - 29.500 MHz
TMSAT-1 30 Oct 17:24:45 17:26:22 11° 269° (W) 17:27:59 436.925 FM
JAS-2 30 Oct 17:45:55 17:51:41 44° 69° (ENE) 17:58:11 435.800 - 435.900 CW/SSB, 435.910 FM
ISS 30 Oct 17:58:35 18:01:46 41° 38° (NE) 18:04:57 145.800 FM
Uosat F 30 Oct 18:13:06 18:17:13 25° 264° (W) 18:21:22 435.120 FM
Hamsat 30 Oct 18:25:10 18:29:15 55° 75° (ENE) 18:33:20 145.90 MHz
OPAL 30 Oct 18:40:58 18:45:48 53° 103° (ESE) 18:50:37 ?
AO-7 30 Oct 18:51:18 18:56:25 18° 267° (W) 19:01:35 29.400 - 29.500 MHz
AO-40 30 Oct 18:52:40 01:18:18 52° 183° (S) 05:07:15 Beacon 2401.320
JAS-2 30 Oct 19:31:58 19:36:57 26° 268° (W) 19:42:28 435.800 - 435.900 CW/SSB, 435.910 FM
ISS 30 Oct 19:36:09 19:38:12 15° 232° (SW) 19:40:14 145.800 FM
SO-67 30 Oct 19:54:34 19:57:59 76° 78° (ENE) 20:01:25 435.3500 MHz FM
RS-15 30 Oct 20:15:17 20:22:54 22° 102° (ESE) 20:30:24 29.354 - 29.394 USB, Beacon 29.352 USB
KITSAT 1 30 Oct 20:15:58 20:23:11 34° 52° (NE) 20:30:21 435.175 FM
SO-50 30 Oct 20:19:28 20:23:08 21° 50° (NE) 20:26:49 436.795 FM
OPAL 30 Oct 20:21:23 20:24:13 16° 297° (WNW) 20:27:03 ?
HO-68 30 Oct 20:21:24 20:26:23 21° 60° (ENE) 20:31:22 435.675 MHz FM
STRAND 1 30 Oct 20:35:44 20:40:54 82° 284° (WNW) 20:46:01 ?
Oscar 10/S400 30 Oct 21:38:53 22:22:09 57° 206° (SSW) 08:25:48 145.825 - 145.975 CW/USB, Beacon 145.810 USB
SO-50 30 Oct 21:59:15 22:03:53 44° 246° (WSW) 22:08:30 436.795 FM
UKube-1 30 Oct 22:03:42 22:07:43 38° 72° (ENE) 22:11:46 145.840 MHz, 145.915 MHz
HO-68 30 Oct 22:06:16 22:13:22 69° 257° (WSW) 22:20:33 435.675 MHz FM
KITSAT 1 30 Oct 22:11:04 22:18:46 50° 250° (WSW) 22:26:26 435.175 FM
ZACube-1 30 Oct 22:12:10 22:15:19 19° 69° (ENE) 22:18:25 437.345 MHz
RS-15 30 Oct 22:22:51 22:33:54 81° 299° (WNW) 22:44:53 29.354 - 29.394 USB, Beacon 29.352 USB
MaSat-1 30 Oct 22:27:54 22:31:36 36° 109° (ESE) 22:35:01 437.345 MHz
Oscar 11 30 Oct 22:39:03 22:43:22 87° 257° (WSW) 22:47:42 145.825 FM, Beacon 2401.500 USB
UOSAT-12 30 Oct 22:47:16 22:51:52 51° 57° (ENE) 22:56:22 437.025 FM, 437.400 FM
FUNcube-1 30 Oct 22:53:44 22:58:11 55° 75° (ENE) 23:02:33 145.950 - 145.970 MHz USB
UKube-1 30 Oct 23:41:28 23:44:01 15° 266° (W) 23:46:34 145.840 MHz, 145.915 MHz
ZACube-1 30 Oct 23:47:16 23:51:25 35° 262° (W) 23:55:32 437.345 MHz
MaSat-1 31 Oct 00:04:58 00:07:03 14° 300° (WNW) 00:09:02 437.345 MHz
UOSAT-12 31 Oct 00:29:02 00:31:31 14° 252° (WSW) 00:33:58 437.025 FM, 437.400 FM
FUNcube-1 31 Oct 00:33:21 00:34:47 11° 268° (W) 00:36:12 145.950 - 145.970 MHz USB
RS-15 31 Oct 00:40:05 00:48:11 23° 324° (NW) 00:56:22 29.354 - 29.394 USB, Beacon 29.352 USB
JAS-1B 31 Oct 01:58:52 02:04:44 24° 96° (E) 02:11:18 435.800 - 435.900 CW/SSB
Oscar 16 31 Oct 02:14:39 02:18:39 23° 95° (E) 02:22:37 437.025 USB, Beacon 2401.1428
Sapphire 31 Oct 02:21:41 02:26:15 29° 108° (ESE) 02:30:50 437.095 MHz 1200 baud AX-25 AFSK
PCSat 31 Oct 02:42:39 02:47:51 50° 111° (ESE) 02:53:05 145.825 MHz
Uribyol 2 31 Oct 02:46:54 02:50:30 19° 94° (E) 02:54:05 436.500 FM
AO-Echo 31 Oct 02:54:00 02:58:38 30° 96° (E) 03:03:10 ?
ITAMSAT 1 31 Oct 02:54:28 02:58:23 21° 95° (E) 03:02:15 435.822 SSB
RS-15 31 Oct 03:04:06 03:06:53 11° 2° (N) 03:09:41 29.354 - 29.394 USB, Beacon 29.352 USB
Oscar 19 31 Oct 03:06:00 03:11:08 77° 102° (ESE) 03:16:15 437.125 CW, 437.150 USB
AO-27 31 Oct 03:40:56 03:46:08 65° 102° (ESE) 03:51:17 436.795 MHz FM
JAS-1B 31 Oct 03:48:12 03:55:22 63° 287° (WNW) 04:03:55 435.800 - 435.900 CW/SSB
Oscar 16 31 Oct 03:53:24 03:58:01 35° 289° (WNW) 04:02:38 437.025 USB, Beacon 2401.1428
Gurwin Techsat 1B 31 Oct 03:53:29 03:58:33 44° 99° (E) 04:03:34 435.225 FM
TMSAT-1 31 Oct 04:00:19 04:05:13 37° 98° (E) 04:10:04 436.925 FM
Sapphire 31 Oct 04:04:40 04:09:31 33° 303° (WNW) 04:14:24 437.095 MHz 1200 baud AX-25 AFSK
Uribyol 2 31 Oct 04:25:13 04:30:07 43° 288° (WNW) 04:34:59 436.500 FM
PCSat 31 Oct 04:27:32 04:31:32 21° 308° (NW) 04:35:33 145.825 MHz
AO-Echo 31 Oct 04:32:43 04:37:15 29° 291° (WNW) 04:41:44 ?
ITAMSAT 1 31 Oct 04:33:08 04:37:57 39° 289° (WNW) 04:42:43 435.822 SSB
Uosat F 31 Oct 04:47:09 04:49:00 12° 92° (E) 04:50:51 435.120 FM
Oscar 19 31 Oct 04:48:20 04:49:47 11° 298° (WNW) 04:51:13 437.125 CW, 437.150 USB
AO-7 31 Oct 05:00:39 05:07:58 33° 98° (E) 05:15:14 29.400 - 29.500 MHz
PANSAT 31 Oct 05:10:56 05:14:02 23° 168° (SSE) 05:17:08 not established
RS-15 31 Oct 05:16:41 05:25:23 25° 38° (NE) 05:34:17 29.354 - 29.394 USB, Beacon 29.352 USB
AO-27 31 Oct 05:22:31 05:25:02 14° 297° (WNW) 05:27:33 436.795 MHz FM
Gurwin Techsat 1B 31 Oct 05:34:20 05:38:09 20° 294° (WNW) 05:41:56 435.225 FM
TMSAT-1 31 Oct 05:40:44 05:44:52 24° 293° (WNW) 05:48:59 436.925 FM
OPAL 31 Oct 05:52:30 05:57:34 67° 73° (ENE) 06:02:36 ?
STRAND 1 31 Oct 06:13:47 06:14:54 11° 62° (ENE) 06:16:01 ?
Hamsat 31 Oct 06:15:52 06:17:42 13° 93° (E) 06:19:32 145.90 MHz
Uosat F 31 Oct 06:23:09 06:28:09 63° 286° (WNW) 06:33:06 435.120 FM
JAS-2 31 Oct 06:42:55 06:50:41 59° 100° (E) 06:58:04 435.800 - 435.900 CW/SSB, 435.910 FM
Saudisat 1A 31 Oct 06:42:59 06:47:20 73° 300° (WNW) 06:51:44 436.775 MHz
PANSAT 31 Oct 06:50:20 06:53:46 31° 181° (S) 06:57:11 not established
AO-7 31 Oct 06:52:57 07:00:50 49° 294° (WNW) 07:08:43 29.400 - 29.500 MHz
RS-15 31 Oct 07:28:12 07:39:30 86° 62° (ENE) 07:51:19 29.354 - 29.394 USB, Beacon 29.352 USB
OPAL 31 Oct 07:35:04 07:36:48 12° 266° (W) 07:38:32 ?
STRAND 1 31 Oct 07:48:12 07:53:20 81° 257° (WSW) 07:58:31 ?
Hamsat 31 Oct 07:49:48 07:53:48 43° 286° (WNW) 07:57:50 145.90 MHz
MaSat-1 31 Oct 08:16:05 08:17:48 17° 61° (ENE) 08:19:28 437.345 MHz
JAS-2 31 Oct 08:28:47 08:35:05 28° 296° (WNW) 08:41:14 435.800 - 435.900 CW/SSB, 435.910 FM
PANSAT 31 Oct 08:30:30 08:33:29 21° 193° (SSW) 08:36:27 not established
SO-67 31 Oct 08:53:46 08:57:08 53° 284° (WNW) 09:00:29 435.3500 MHz FM
HO-68 31 Oct 09:38:24 09:44:23 28° 96° (E) 09:50:19 435.675 MHz FM
RS-15 31 Oct 09:42:53 09:50:32 21° 259° (WSW) 09:58:26 29.354 - 29.394 USB, Beacon 29.352 USB
Oscar 11 31 Oct 10:30:44 10:34:03 21° 95° (E) 10:37:21 145.825 FM, Beacon 2401.500 USB
SO-50 31 Oct 10:33:47 10:35:11 11° 107° (ESE) 10:36:37 436.795 FM
ISS 31 Oct 10:38:02 10:41:21 88° 137° (SE) 10:44:40 145.800 FM
KITSAT 1 31 Oct 10:40:43 10:47:48 35° 107° (ESE) 10:54:53 435.175 FM
FUNcube-1 31 Oct 10:48:15 10:50:00 12° 92° (E) 10:51:45 145.950 - 145.970 MHz USB
Sapphire 31 Oct 11:14:00 11:16:36 13° 48° (NE) 11:19:12 437.095 MHz 1200 baud AX-25 AFSK
